This demonstration page uses our WeatherBlox Daily Observations layout. Learn more.

Left ArrowRight Arrow

53.62937, 11.41316

Hourly Observations for January 12, 2022

Temp ( °F °C ) Dew Point ( °F °C ) Humidity (%) Winds ( mph kmh ) Pressure ( in mb ) Visibility ( mi km ) Precip ( " mm )
12:20 am 00:20 Mostly Cloudy 37 3 34 1 87 87 S 6 9 30.51 1033 30 48 N/A
12:50 am 00:50 Mostly Cloudy 37 3 34 1 87 87 VRB 5 7 30.51 1033 30 48 N/A
1:20 am 01:20 Cloudy 37 3 34 1 87 87 VRB 5 7 30.51 1033 30 48 N/A
1:50 am 01:50 Cloudy 37 3 34 1 87 87 S 3 6 30.51 1033 30 48 N/A
2:20 am 02:20 Cloudy 37 3 34 1 87 87 S 5 7 30.51 1033 30 48 N/A
2:50 am 02:50 Cloudy 37 3 34 1 87 87 VRB 3 6 30.51 1033 30 48 N/A
3:20 am 03:20 Cloudy 37 3 34 1 87 87 WSW 5 7 30.54 1034 30 48 N/A
3:50 am 03:50 Cloudy 37 3 36 2 93 93 WSW 5 7 30.54 1034 30 48 N/A
4:20 am 04:20 Cloudy 37 3 36 2 93 93 WSW 5 7 30.54 1034 4 7 N/A
4:50 am 04:50 Cloudy 37 3 36 2 93 93 WSW 6 9 30.54 1034 3 5 N/A
5:20 am 05:20 Cloudy 37 3 36 2 93 93 WSW 5 7 30.51 1033 2 4 N/A
5:50 am 05:50 Mostly Cloudy 37 3 36 2 93 93 WSW 5 7 30.54 1034 1 2 N/A
6:20 am 06:20 Cloudy 37 3 37 3 100 100 WSW 5 7 30.54 1034 3 5 N/A
6:50 am 06:50 Mostly Cloudy with Mist and Fog 37 3 37 3 100 100 WSW 3 6 30.54 1034 3 5 N/A
7:50 am 07:50 Mostly Cloudy with Drizzle 37 3 37 3 100 100 W 7 11 30.54 1034 2 3 N/A
8:20 am 08:20 Mostly Cloudy 37 3 37 3 100 100 W 7 11 30.54 1034 3 5 N/A
8:50 am 08:50 Mostly Cloudy 37 3 36 2 93 93 WNW 10 17 30.57 1035 4 7 N/A
9:20 am 09:20 Mostly Cloudy 37 3 36 2 93 93 WNW 6 9 30.57 1035 4 7 N/A
9:50 am 09:50 Mostly Cloudy 37 3 36 2 93 93 W 6 9 30.57 1035 5 8 N/A
10:20 am 10:20 Mostly Cloudy 37 3 36 2 93 93 W 6 9 30.57 1035 5 8 N/A
10:50 am 10:50 Cloudy 37 3 36 2 93 93 W 7 11 30.60 1036 5 8 N/A
11:20 am 11:20 Cloudy 39 4 37 3 93 93 W 6 9 30.60 1036 4 7 N/A
11:50 am 11:50 Mostly Cloudy 39 4 37 3 93 93 W 10 17 30.60 1036 5 8 N/A
12:20 pm 12:20 Mostly Cloudy 39 4 37 3 93 93 W 8 13 30.60 1036 6 9 N/A
12:50 pm 12:50 Cloudy 39 4 37 3 93 93 W 7 11 30.60 1036 6 9 N/A
1:20 pm 13:20 Mostly Cloudy 41 5 37 3 87 87 W 7 11 30.60 1036 30 48 N/A
1:50 pm 13:50 Mostly Cloudy 41 5 39 4 93 93 W 7 11 30.60 1036 30 48 N/A
2:20 pm 14:20 Mostly Cloudy 43 6 39 4 87 87 W 7 11 30.57 1035 30 48 N/A
2:50 pm 14:50 Mostly Cloudy 43 6 39 4 87 87 W 7 11 30.57 1035 30 48 N/A
3:50 pm 15:50 Mostly Cloudy 43 6 39 4 87 87 WSW 7 11 30.57 1035 30 48 N/A
4:20 pm 16:20 Partly Cloudy 43 6 39 4 87 87 WSW 8 13 30.57 1035 30 48 N/A
4:50 pm 16:50 Mostly Clear 41 5 37 3 87 87 WSW 7 11 30.57 1035 30 48 N/A
5:20 pm 17:20 Mostly Cloudy 41 5 37 3 87 87 WSW 7 11 30.57 1035 30 48 N/A
5:50 pm 17:50 Mostly Cloudy 41 5 39 4 93 93 WSW 8 13 30.57 1035 30 48 N/A
6:20 pm 18:20 Cloudy 41 5 39 4 93 93 W 8 13 30.57 1035 30 48 N/A
6:50 pm 18:50 Cloudy 41 5 39 4 93 93 W 10 17 30.60 1036 30 48 N/A
7:20 pm 19:20 Mostly Cloudy 41 5 39 4 93 93 WSW 9 15 30.60 1036 6 9 N/A
7:50 pm 19:50 Mostly Cloudy 41 5 39 4 93 93 WSW 9 15 30.60 1036 4 6 N/A
8:20 pm 20:20 Mostly Cloudy 41 5 39 4 93 93 WSW 9 15 30.60 1036 4 6 N/A
8:50 pm 20:50 Cloudy 41 5 41 5 100 100 WSW 9 15 30.57 1035 4 6 N/A
9:20 pm 21:20 Mostly Cloudy 41 5 41 5 100 100 WSW 9 15 30.57 1035 4 6 N/A
9:50 pm 21:50 Cloudy 41 5 41 5 100 100 WSW 9 15 30.57 1035 5 8 N/A
10:20 pm 22:20 Mostly Cloudy 43 6 41 5 93 93 WSW 8 13 30.57 1035 6 9 N/A
10:50 pm 22:50 Cloudy 43 6 41 5 93 93 W 10 17 30.57 1035 5 8 N/A
11:20 pm 23:20 Cloudy 43 6 41 5 93 93 W 13 20 30.57 1035 4 6 N/A
11:50 pm 23:50 Cloudy 41 5 41 5 100 100 W 12 19 30.57 1035 3 5 N/A

Powered by AerisWeather